Home > Weather > Koszalin > Past weeks

Flag for Poland Weather for the Past 2 Weeks in Koszalin, Poland

Now
41 °F

Passing clouds.


Feels Like: 33 °F
Forecast: 38 / 45 °F
Wind: 16 mph from South

Location: Roenne

Current Time: Feb 9, 2016 at 4:58:36 PM

Latest Report: Feb 9, 2016 at 4:20 PM


Visibility: N/A

Pressure: 29.21 "Hg

Humidity: 81%

Dew point: 36 °F

Location of KoszalinLocation

Historic Weather in Koszalin — Graph

°F

Koszalin Temperature Yesterday

Maximum temperature yesterday: 45 °F (at 7:20 PM)
Minimum temperature yesterday: 41 °F (at 12:20 AM)
Average temperature yesterday: 42 °F

High & Low Weather Summary for the Past Weeks

 TemperatureHumidityPressure
High45 °F (Jan 27, 7:20 PM)100% (Jan 25, 3:20 PM)30.15 "Hg (Jan 25, 3:20 PM)
Low36 °F (Feb 4, 11:50 PM)75% (Feb 4, 3:20 AM)29.12 "Hg (Feb 9, 2:20 AM)
Average41 °F89%29.69 "Hg
* Reported Jan 25 3:20 PM — Feb 9 3:20 PM, Koszalin, Weather by CustomWeather, © 2016

Note: Actual official high and low records may vary slightly from our data, if they occured in-between our weather recording intervals... More about our weather records

Advertising

Koszalin Weather History for the Previous 24 Hours

 ConditionsComfort  
Time TempWeatherWind HumidityBarometerVisibility
3:20 PM
Tue, Feb 9
41 °FPartly sunny.13 mph87%29.21 "HgN/A
2:20 PM43 °FPartly sunny.13 mph81%29.21 "HgN/A
1:50 PM43 °FPartly sunny.12 mph81%29.24 "HgN/A
1:20 PM43 °FBroken clouds.13 mph81%29.24 "HgN/A
12:50 PM43 °FPartly sunny.13 mph81%29.24 "HgN/A
12:20 PM41 °FDrizzle. Partly sunny.22 mph87%29.24 "HgN/A
11:20 AM41 °FOvercast.21 mph93%29.24 "HgN/A
10:50 AM41 °FPartly sunny.18 mph93%29.21 "HgN/A
10:20 AM41 °FSprinkles. Partly sunny.18 mph93%29.21 "Hg6 mi
9:50 AM41 °FSprinkles. Partly sunny.25 mph87%29.21 "HgN/A
9:20 AM41 °FPartly sunny.22 mph93%29.18 "HgN/A
8:50 AM41 °FSprinkles. Overcast.22 mph87%29.18 "HgN/A
8:20 AM41 °FLight rain. Partly sunny.21 mph93%29.18 "HgN/A
7:50 AM41 °FOvercast.21 mph93%29.15 "HgN/A
6:50 AM41 °FDrizzle. Overcast.21 mph93%29.15 "HgN/A
6:20 AM41 °FLight rain. Overcast.24 mph93%29.12 "HgN/A
5:50 AM41 °FLight rain. Overcast.22 mph93%29.12 "Hg4 mi
5:20 AM43 °FSprinkles. Passing clouds.22 mph81%29.12 "HgN/A
4:20 AM41 °FSprinkles. Partly cloudy.23 mph87%29.12 "HgN/A
3:50 AM41 °FMostly cloudy.23 mph87%29.12 "HgN/A
3:20 AM41 °FPassing clouds.23 mph87%29.12 "HgN/A
2:20 AM41 °FDrizzle. Overcast.26 mph87%29.12 "HgN/A
1:50 AM41 °FLight rain. Overcast.24 mph87%29.15 "HgN/A
1:20 AM41 °FLight rain. Passing clouds.23 mph87%29.15 "HgN/A
12:50 AM41 °FPartly cloudy.23 mph87%29.15 "HgN/A
12:20 AM41 °FPassing clouds.23 mph87%29.15 "HgN/A
11:20 PM
Mon, Feb 8
41 °FPassing clouds.21 mph87%29.18 "HgN/A
10:50 PM41 °FPassing clouds.14 mph87%29.18 "HgN/A
10:20 PM41 °FPassing clouds.7 mph93%29.18 "HgN/A
9:50 PM41 °FSprinkles. Passing clouds.8 mph93%29.18 "HgN/A
9:20 PM41 °FRain. Passing clouds.14 mph93%29.18 "Hg4 mi
8:50 PM43 °FPassing clouds.20 mph87%29.18 "HgN/A
8:20 PM43 °FPassing clouds.21 mph87%29.18 "HgN/A
7:50 PM43 °FPartly cloudy.17 mph87%29.18 "HgN/A
7:20 PM45 °FSprinkles. Passing clouds.20 mph87%29.18 "HgN/A
6:50 PM43 °FPassing clouds.20 mph87%29.18 "HgN/A
6:20 PM43 °FPassing clouds.20 mph87%29.21 "HgN/A
5:50 PM43 °FPassing clouds.20 mph87%29.21 "HgN/A
5:20 PM43 °FPassing clouds.22 mph87%29.21 "HgN/A
4:50 PM43 °FPartly sunny.25 mph87%29.21 "HgN/A
4:20 PM43 °FOvercast.26 mph81%29.21 "HgN/A
Weather by CustomWeather, © 2016

See weather overviewHow to use our weather pages